Tracking 19572 objects as of 23-Feb-2019
HD Live streaming from Space Station
objects crossing your sky now

COSMOS 641

Track COSMOS 641 now!
10-day predictions
COSMOS 641 is classified as:


NORAD ID: 7265
Int'l Code: 1974-024A
Perigee: 1,394.3 km
Apogee: 1,488.1 km
Inclination: 74.0 °
Period: 114.5 minutes
Semi major axis: 7812 km
RCS: 0.7225 m2 (medium)
Launch date: April 23, 1974
Source: Commonwealth of Independent States (former USSR) (CIS)
Launch site: PLESETSK MISSILE AND SPACE COMPLEX (PKMTR)
aabbcc
Your satellite tracking list
Your tracking list is empty




NASA's NSSDC Master Catalog

Two Line Element Set (TLE):
1  7265U 74024A   19054.24234319 -.00000012  00000-0  26635-4 0  9994
2  7265  74.0191 321.0337 0059996  24.4842  93.8103 12.57307755 58138
Source of the keplerian elements: AFSPC